Location: Igri�s
(42.2144°N, 0.4320°W)
Time: 14:25:07
(UTC+00:00)

NOSS 3-2 (C) - Pass Details

Date: 13 August 2020
Orbit: 793 x 1419 km, 63.4° (Epoch: 21 September)

Event Time Altitude Azimuth Distance (km) Brightness Sun altitude
Rises 21:26:16 0° 227° (SW) 3,334 6.3 -22.5°
Reaches altitude 10° 21:28:38 10° 231° (SW) 2,447 5.6 -22.8°
Maximum altitude 21:34:10 59° 311° (NW) 1,044 3.9 -23.5°
Drops below altitude 10° 21:40:32 10° 30° (NNE) 2,797 6.1 -24.3°
Sets 21:43:24 0° 35° (NE) 3,852 6.8 -24.6°
